Location: Newark
(44.2003°N, 3.2583°E)
Time: 07:05:10
(UTC+00:00)

SR - Pass Details

Date: 28 October 2019
Orbit: 574 x 882 km, 66.7° (Epoch: 18 November)

Event Time Altitude Azimuth Distance (km) Brightness Sun altitude
Rises 21:48:03 0° 266° (W) 3,178 - -52.1°
Reaches altitude 10° 21:51:13 10° 286° (WNW) 2,321 - -52.5°
Maximum altitude 21:54:38 17° 326° (NNW) 1,946 - -52.9°
Drops below altitude 10° 21:58:14 10° 6° (N) 2,447 - -53.3°
Sets 22:01:43 0° 26° (NNE) 3,432 - -53.7°
